Change the Weather History Date:

Monday, November 28, 2011

  Actual Average Record
Temperature  
Mean Temperature 58 °F 61 °F  
Max Temperature 78 °F 72 °F 97 °F (1949)
Min Temperature 37 °F 51 °F 27 °F (1993)
Degree Days  
Heating Degree Days 7 6  
Month to date heating degree days 45 91  
Since 1 July heating degree days 54 103  
Cooling Degree Days 0 2  
Month to date cooling degree days 189 121  
Year to date cooling degree days 5654 4250  
Growing Degree Days 7 (Base 50)    
Moisture  
Dew Point 15 °F    
Average Humidity 22    
Maximum Humidity 44    
Minimum Humidity 9    
Precipitation  
Precipitation 0.00 in 0.04 in 1.20 in (1906)
Month to date precipitation 0.20 1.13  
Year to date precipitation 4.41 19.26  
Sea Level Pressure  
Sea Level Pressure 30.16 in    
Wind  
Wind Speed 6 mph (SW)    
Max Wind Speed 14 mph    
Max Gust Speed 16 mph    
Visibility 10 miles    
Events      
T = Trace of Precipitation, MM = Missing Value Source: NWS Daily Summary

Daily Weather History Graph

Daily Weather History Graph

Search for Another Location

Airport or City:

Trip Planner

Search our weather history database for the weather conditions in past years. The results will help you decide how hot, cold, wet, or windy it might be!

Date:

Astronomy

Nov. 28, 2011 Rise Set
Actual Time 7:08 AM CST 5:42 PM CST
Civil Twilight 6:43 AM CST 6:08 PM CST
Nautical Twilight 6:14 AM CST 6:36 PM CST
Astronomical Twilight 5:46 AM CST 7:05 PM CST
Moon 10:21 AM CST (11/28) 9:26 PM CST (11/28)
Length of Visible Light 11h 24m
Length of Day
10h 34m
Waxing Crescent, 16% of the Moon is Illuminated
Nov 28
Waxing Crescent
Dec 2
First Quarter
Dec 10
Full
Dec 17
Last Quarter
Dec 24
New

Hourly Weather History & Observations

Time (CST) Temp. Windchill Dew Point Humidity Pressure Visibility Wind Dir Wind Speed Gust Speed Precip Events Conditions
12:56 AM 43.0 °F 39.5 °F 10.0 °F 26% 30.31 in 10.0 mi WNW 5.8 mph - N/A   Clear
1:56 AM 39.9 °F 37.8 °F 11.1 °F 31% 30.30 in 10.0 mi Variable 3.5 mph - N/A   Clear
2:56 AM 39.9 °F 35.8 °F 11.1 °F 31% 30.29 in 10.0 mi West 5.8 mph - N/A   Clear
3:56 AM 38.8 °F 36.5 °F 12.0 °F 33% 30.27 in 10.0 mi WNW 3.5 mph - N/A   Clear
4:56 AM 41.0 °F - 12.0 °F 31% 30.26 in 10.0 mi Calm Calm - N/A   Clear
5:56 AM 38.8 °F 35.4 °F 14.0 °F 36% 30.25 in 10.0 mi West 4.6 mph - N/A   Clear
6:56 AM 37.9 °F - 15.1 °F 39% 30.25 in 10.0 mi Calm Calm - N/A   Clear
7:56 AM 37.9 °F - 17.1 °F 43% 30.25 in 10.0 mi Calm Calm - N/A   Clear
8:56 AM 48.9 °F - 15.1 °F 26% 30.25 in 10.0 mi WSW 3.5 mph - N/A   Clear
9:56 AM 56.8 °F - 18.1 °F 22% 30.25 in 10.0 mi WSW 5.8 mph - N/A   Clear
10:56 AM 63.0 °F - 19.0 °F 18% 30.22 in 10.0 mi SW 6.9 mph - N/A   Clear
11:56 AM 68.9 °F - 16.2 °F 13% 30.19 in 10.0 mi SW 6.9 mph - N/A   Clear
12:56 PM 72.9 °F - 12.0 °F 10% 30.14 in 10.0 mi West 6.9 mph - N/A   Clear
1:56 PM 75.9 °F - 13.1 °F 9% 30.10 in 10.0 mi West 6.9 mph - N/A   Clear
2:56 PM 75.9 °F - 12.0 °F 9% 30.07 in 10.0 mi WNW 8.1 mph - N/A   Clear
3:56 PM 77.0 °F - 13.1 °F 9% 30.06 in 10.0 mi Calm Calm - N/A   Clear
4:56 PM 77.0 °F - 14.0 °F 9% 30.05 in 10.0 mi SW 4.6 mph - N/A   Clear
5:56 PM 68.0 °F - 16.2 °F 14% 30.04 in 10.0 mi South 6.9 mph - N/A   Clear
6:56 PM 64.9 °F - 19.0 °F 17% 30.05 in 10.0 mi South 5.8 mph - N/A   Clear
7:56 PM 63.9 °F - 19.0 °F 18% 30.06 in 10.0 mi SE 5.8 mph - N/A   Clear
8:56 PM 59.9 °F - 18.1 °F 20% 30.07 in 10.0 mi SSE 8.1 mph - N/A   Clear
9:56 PM 59.9 °F - 18.1 °F 20% 30.06 in 10.0 mi South 13.8 mph - N/A   Clear
10:56 PM 55.9 °F - 19.0 °F 24% 30.06 in 10.0 mi SSW 6.9 mph - N/A   Clear
11:56 PM 52.9 °F - 20.1 °F 28% 30.06 in 10.0 mi South 4.6 mph - N/A   Clear